SCP
0 0 0 0 0 0 0 0 0 0 0 0 0 0 0 -0 -0 -0 0 0 0 0 0 0 -0 0 0 0 0 0 0 -0 0 -0 0 0 0 0 -0 0 0 0 0 0
0 0 0 0 0 0 0 0 0 0 0 0 0 0 0 -0 -0 -0 0 0 -0 -0 0 0 0 -0 -0 0 -0 0 0 -0 -0 0 0 0 0 0 0 0 0 0 0 0
0 0 0 0 0 0 0 0 0 0 0 0 0 0 -0 0 -0 -0 0 -0 -0 -0 -0 -0 0 -0 -0 -0 -0 0 -0 -0 0 0 -0 -0 -0 0 0 0 0 0 0 0
0 0 0 0 0 0 -0 0 0 0 0 0 0 0 0 -0 -0 0 -0 0 0 -0 0 -0 -0 -0 -0 0 0 -0 0 0 0 0 0 -0 -0 0 0 0 0 0 0 0
0 0 0 0 0 -0 0 0 0 0 0 0 0 0 0 0 -0 -0 -0 0 -0 -0 0 0 -0 -0 -0 0 0 0 0 0 0 0 -0 -0 -0 -0 0 0 0 0 0 0
0 0 0 0 0 0 0 0 0 0 0 0 0 0 0 0 -0 0 0 -0 -0 -0 0 -0 -0 -0 -0 -0 0 0 0 0 0 0 -0 0 0 0 0 0 0 0 0 0
0 0 0 0 0 0 0 0 0 0 0 0 0 0 0 0 0 0 0 -0 0 -0 -0 -0 -0 -0 -0 0 0 0 0 0 0 0 0 0 0 0 0 0 0 0 0 0
0 0 0 0 0 0 0 0 0 0 0 0 0 0 0 0 0 0 0 0 -0 -0 -0 0 -0 0 0 0 0 0 0 0 0 0 0 -0 0 0 -0 0 0 0 0 0
0 0 0 0 0 0 0 0 0 0 0 0 -0 0 0 0 0 0 0 -0 -0 0 0 0 0 0 0 0 0 0 0 0 0 0 0 0 0 0 0 0 0 0 0 0
0 0 0 0 0 0 0 0 0 0 0 0 0 0 0 0 0 0 0 0 0 -0 0 0 0 0 0 0 0 0 0 0 0 0 0 0 0 0 0 0 0 0 0 0
0 0 0 0 0 0 0 0 0 0 0 0 0 0 0 0 0 0 0 0 0 0 0 0 0 0 0 0 0 0 0 0 0 0 0 0 0 0 0 0 0 0 0 0
0 0 0 0 0 0 0 0 0 0 0 0 -0 0 -0 0 0 0 0 0 0 -0 0 0 0 0 0 0 0 0 0 0 0 0 0 0 0 0 -0 0 0 0 0 0
0 0 0 0 0 0 0 0 0 0 0 0 -0 -0 0 0 0 0 0 0 -0 -0 0 0 0 0 0 0 0 0 0 0 0 0 0 0 0 0 0 0 0 0 0 0
0 0 0 0 0 0 0 0 0 0 0 -0 -0 -0 -0 0 0 0 -0 -0 -0 -0 0 0 0 0 0 0 0 0 0 0 0 0 0 0 0 0 0 0 -0 -0 -0 -0
0 0 -0 0 -0 0 0 0 0 0 0 0 0 -0 0 0 0 -0 -0 -0 -0 0 0 0 0 0 0 0 0 0 0 0 0 0 0 0 0 0 0 -0 -0 -0 -0 -0
-0 -0 -0 -0 -0 0 0 0 0 0 0 0 -0 -0 -0 0 0 0 0 0 0 0 0 0 0 0 0 0 0 0 0 0 0 0 0 0 0 0 0 -0 -0 -0 0 -0
-0 -0 -0 -0 -0 0 0 0 0 0 0 0 -0 -0 -0 -0 0 -0 -0 0 0 0 0 0 0 0 0 0 0 -0 0 0 0 0 0 0 0 0 0 -0 -0 -0 -0 -0
-0 -0 -0 -0 0 0 0 0 0 0 0 0 -0 0 0 0 0 -0 0 0 0 -0 0 0 0 0 0 0 0 0 0 0 0 0 -0 0 0 0 0 0 0 0 -0 -0
0 -0 -0 0 0 0 0 0 0 0 0 -0 -0 0 -0 -0 0 -0 0 0 -0 0 0 0 0 0 0 0 0 0 -0 -0 0 0 0 0 0 0 0 -0 -0 -0 -0 -0
-0 0 0 0 0 -0 0 0 0 0 0 0 -0 0 -0 -0 -0 -0 0 0 0 0 0 0 0 0 0 0 0 -0 -0 0 0 0 0 0 0 0 -0 -0 -0 -0 -0 -0
0 0 0 0 0 0 0 0 0 0 -0 0 -0 0 -0 -0 0 -0 0 0 0 0 0 0 0 0 0 0 0 0 -0 -0 -0 0 0 0 0 0 -0 -0 -0 -0 -0 -0
0 0 0 0 0 0 0 0 0 -0 0 -0 -0 -0 0 -0 -0 0 0 0 0 0 0 0 0 0 0 0 0 0 0 0 0 0 -0 -0 -0 -0 -0 -0 -0 -0 -0 -0
0 0 0 0 0 0 0 0 0 0 -0 -0 -0 -0 -0 -0 -0 0 0 0 0 0 0 0 0 0 0 0 0 0 -0 -0 -0 -0 -0 -0 -0 -0 -0 -0 -0 -0 -0 -0
0 0 0 0 0 0 0 0 0 0 0 -0 -0 -0 -0 0 0 0 0 0 0 0 0 0 0 0 0 0 0 0 -0 -0 -0 -0 -0 -0 -0 -0 -0 -0 -0 -0 -0 -0
0 0 0 0 0 0 0 0 0 0 0 -0 -0 -0 -0 0 0 0 0 0 0 0 0 0 0 0 0 0 -0 -0 -0 -0 -0 -0 -0 -0 -0 -0 -0 -0 -0 -0 0 0
-0 0 -0 0 0 0 0 0 0 0 0 0 0 0 0 0 0 0 0 0 0 0 0 0 0 0 0 0 0 -0 -0 -0 -0 -0 -0 -0 -0 -0 -0 -0 0 0 0 0
-0 0 -0 0 -0 0 0 0 0 -0 -0 0 0 0 0 0 0 0 0 0 0 0 0 0 0 0 0 0 0 0 0 -0 -0 -0 -0 -0 -0 -0 0 0 0 0 0 0
Wind_Speed_500mb
64 67 67 68 62 73 61 26 8 34 37 21 16 17 27 35 33 45 11 17 19 9 37 26 15 16 15 31 24 8 13 8 3 54 16 39 41 44 54 21 31 29 16 15
60 61 65 65 59 62 51 34 12 25 39 12 20 26 25 22 42 31 13 17 13 25 24 18 21 18 27 30 22 7 5 11 11 10 12 13 21 54 57 38 15 22 19 16
56 56 63 57 55 51 32 22 11 16 16 20 28 34 22 30 44 28 43 27 24 32 39 14 26 28 24 57 31 20 18 7 15 20 37 28 30 42 56 39 18 25 10 33
56 53 54 54 50 46 35 25 11 14 14 21 30 28 24 44 29 19 39 12 33 44 17 31 7 40 27 25 9 28 13 7 14 13 42 25 44 53 58 41 35 9 33 36
53 50 48 47 42 39 25 18 15 21 30 30 30 22 21 33 43 39 27 19 44 40 21 23 32 31 19 13 18 29 21 13 11 34 43 31 26 48 46 35 14 13 37 33
52 49 42 44 31 39 18 36 24 13 27 20 23 18 34 42 44 22 32 40 43 34 22 33 58 56 40 30 20 11 11 12 9 7 39 37 7 39 43 21 33 23 34 26
50 47 41 36 31 23 28 30 36 9 17 26 26 36 42 43 44 24 57 51 15 34 78 70 35 31 31 24 24 19 11 14 7 17 32 14 20 39 54 31 22 38 43 36
48 45 38 33 28 19 26 30 28 11 12 37 30 41 38 46 47 33 44 42 46 53 34 8 13 5 7 8 9 18 21 7 5 6 2 41 26 23 52 34 22 46 41 47
46 41 36 33 29 22 25 25 24 27 16 10 49 41 36 27 20 20 21 46 51 25 5 5 8 9 10 9 5 11 10 4 6 18 11 9 27 21 16 39 16 47 56 48
43 40 33 35 29 26 27 30 26 30 22 36 36 29 22 20 13 10 23 28 18 24 9 7 9 7 9 10 11 7 6 2 3 10 10 13 18 4 26 31 21 51 53 56
44 39 34 35 30 28 28 33 25 24 22 59 24 24 36 47 37 7 33 22 6 6 12 9 8 6 8 8 9 2 3 3 4 3 11 12 25 8 6 21 60 67 57 50
43 38 35 36 34 32 28 36 26 37 39 66 63 47 42 45 46 47 10 12 11 9 6 8 7 5 8 9 5 11 5 10 5 12 6 12 7 20 43 54 79 63 74 71
44 38 36 37 36 34 30 36 35 34 30 53 17 12 16 24 27 26 14 10 7 9 12 6 5 7 4 6 5 6 6 16 8 4 16 23 31 43 48 59 68 76 77 82
45 36 35 38 36 34 31 30 31 25 19 10 14 28 35 25 30 31 40 46 47 43 25 11 6 6 4 4 9 10 11 15 10 14 17 37 42 51 64 70 75 79 71 75
45 37 36 39 34 29 28 31 10 9 13 10 30 51 13 23 28 32 31 39 44 30 8 7 3 6 5 5 3 8 22 9 5 7 22 28 25 52 69 81 81 77 89 83
42 36 37 33 26 22 21 3 8 16 20 14 9 25 22 39 42 22 6 15 14 12 5 4 7 8 6 5 6 21 25 22 12 14 60 62 63 62 73 87 82 76 77 75
39 37 35 23 17 15 5 6 10 27 17 8 11 14 14 36 33 22 13 20 9 8 5 4 6 12 10 7 7 25 26 49 56 58 78 57 50 54 69 92 90 85 77 70
37 37 26 15 10 9 8 14 23 17 9 7 6 11 24 26 31 17 16 19 8 18 9 8 7 9 8 10 12 16 37 53 57 70 76 87 87 79 69 83 84 72 66 60
34 28 17 6 3 4 6 25 14 13 9 7 5 10 12 35 36 17 18 13 6 16 7 9 8 9 14 7 4 9 15 48 66 84 74 70 68 65 62 65 63 67 58 52
21 12 5 5 5 15 10 10 3 4 5 4 6 13 10 29 29 12 21 13 8 8 13 9 8 7 32 32 45 53 57 57 55 70 60 60 62 58 55 56 52 54 52 48
10 8 4 11 8 3 5 6 6 3 5 5 9 21 20 18 12 8 13 6 9 8 11 7 7 7 20 28 35 37 43 49 51 55 55 54 57 56 57 54 51 50 47 45
16 10 9 8 3 6 6 3 5 5 6 13 20 30 23 12 8 7 10 6 6 8 14 6 6 4 19 27 33 38 45 50 54 52 54 52 52 52 53 51 49 46 43 40
3 4 4 5 4 3 5 2 2 2 12 14 26 18 12 8 5 7 5 9 8 2 6 5 4 14 14 29 37 44 46 49 51 50 48 48 49 45 47 49 44 42 40 37
5 3 5 6 5 2 2 5 4 8 10 22 27 14 6 7 7 5 6 6 4 5 5 6 5 20 20 30 40 48 47 47 49 48 47 47 46 47 44 43 42 41 40 35
5 5 6 6 2 1 2 7 8 5 10 18 21 10 5 3 3 5 6 3 6 7 6 1 12 25 25 33 37 42 44 43 43 41 41 42 42 43 43 40 39 38 37 35
6 8 8 4 4 3 5 3 6 6 9 12 7 6 4 5 7 3 7 4 4 3 2 8 10 25 28 38 34 38 40 39 39 38 39 40 40 42 43 40 36 35 33 32
7 9 11 10 7 5 6 6 5 7 5 5 5 6 8 5 4 4 5 5 5 10 12 3 16 26 40 40 33 37 40 39 39 39 40 40 41 41 39 36 32 30 28 28
Wind_Direction_500mb
355 355 354 357 0 355 2 351 343 350 6 27 6 4 332 313 329 333 320 278 298 293 323 318 307 310 301 8 327 231 209 171 206 193 195 213 199 193 206 209 188 218 193 116
354 353 355 356 5 7 354 344 337 350 19 21 359 340 318 347 330 335 342 306 308 319 327 318 317 330 307 343 350 295 240 187 167 193 194 199 215 199 206 206 217 206 189 124
353 354 352 355 9 10 15 349 349 356 345 27 349 338 334 338 345 322 343 298 305 334 325 315 293 292 314 323 314 331 171 248 250 188 191 163 201 216 207 201 230 180 211 137
351 355 353 357 8 14 20 14 19 354 316 342 338 332 321 338 341 322 313 289 331 334 304 312 242 327 321 304 289 349 15 260 250 180 142 158 203 197 197 209 216 250 137 144
350 352 353 1 8 24 16 9 353 330 293 323 334 343 339 330 329 322 302 300 312 311 285 285 299 308 310 287 317 339 338 326 329 128 149 161 188 179 188 197 183 264 136 121
348 349 355 358 7 11 357 346 329 312 290 325 341 342 325 316 328 313 307 311 313 310 302 301 287 279 269 260 292 315 313 331 310 120 154 142 163 200 163 207 190 151 142 126
345 346 351 355 4 356 344 337 337 317 308 326 337 314 326 324 321 294 298 314 306 301 309 305 285 254 250 242 245 235 297 312 321 118 127 165 142 199 156 186 117 90 104 123
341 343 345 350 351 347 328 333 328 303 291 315 301 332 322 316 317 309 306 324 328 319 313 304 322 199 210 179 205 206 218 305 48 132 237 120 127 173 164 165 104 123 124 113
337 338 340 344 343 347 325 328 315 312 303 264 325 315 314 313 320 317 298 327 333 334 321 311 333 5 336 1 62 49 88 278 286 157 101 115 142 88 173 135 143 153 148 142
335 334 334 336 340 342 327 319 310 309 268 285 311 306 303 292 299 279 302 340 333 347 329 328 358 337 339 341 5 2 346 1 319 100 104 92 53 84 183 181 148 136 146 143
332 330 328 331 335 331 323 310 317 288 279 291 274 281 278 286 288 276 307 328 46 300 352 351 345 319 338 310 350 340 300 268 18 326 112 110 354 205 124 111 121 126 125 120
331 325 324 327 329 327 317 308 309 299 288 277 295 281 272 262 267 277 274 265 297 284 322 7 316 302 312 338 307 235 344 13 61 31 39 305 8 81 120 131 128 123 121 125
327 320 318 323 327 320 309 300 309 312 291 310 283 299 286 282 275 252 256 267 240 265 330 299 287 280 330 307 318 343 62 31 58 126 11 57 72 97 113 124 122 124 123 126
320 314 316 322 321 312 303 294 299 293 288 284 295 308 302 295 288 272 254 269 279 287 281 229 258 276 347 314 293 13 354 319 71 90 86 68 82 103 116 119 117 115 121 122
315 312 317 321 317 309 304 307 260 275 285 284 294 310 308 323 320 297 275 265 274 272 246 220 256 285 295 253 21 26 337 336 345 62 70 98 89 115 120 114 113 119 119 112
312 311 316 318 315 309 323 292 235 316 328 298 302 309 302 330 339 336 292 326 297 248 307 341 299 270 255 30 60 348 0 69 78 96 87 87 92 104 112 111 114 115 115 118
311 312 316 312 308 293 266 303 293 314 309 272 290 291 299 323 342 346 360 323 332 352 343 287 295 24 41 30 41 337 63 87 98 101 104 82 92 94 107 111 113 110 107 108
310 312 311 298 290 290 293 271 314 300 300 266 292 292 315 358 343 343 6 331 1 7 354 345 359 41 61 56 353 48 83 86 92 102 100 104 105 104 103 104 110 107 105 108
315 315 310 292 244 273 274 299 265 283 263 302 291 314 327 336 341 334 343 343 5 339 17 31 33 30 38 341 337 132 91 104 105 100 100 105 108 108 108 107 107 107 108 108
322 330 309 238 228 307 298 313 276 273 249 255 262 308 306 327 337 340 357 356 7 9 22 20 45 71 49 73 91 100 108 108 111 110 111 110 106 108 108 105 107 109 111 111
355 352 267 281 301 291 252 262 248 240 237 231 287 325 329 335 329 328 2 338 348 17 7 30 49 43 32 69 88 95 105 110 109 109 111 113 115 116 112 110 110 109 110 110
321 311 332 337 296 239 261 265 321 240 352 341 330 334 329 320 324 301 356 348 22 35 328 42 60 5 61 87 92 97 100 104 106 108 111 113 113 113 112 110 109 109 108 108
321 322 315 237 205 311 216 206 184 322 359 346 331 337 337 315 316 296 332 359 36 284 16 62 81 125 86 99 107 107 109 109 109 109 108 109 110 110 110 111 111 111 112 112
257 267 271 245 203 213 325 22 323 357 326 325 335 313 337 336 317 353 328 43 292 33 37 59 94 136 116 115 118 118 116 114 113 114 115 115 115 114 114 113 113 111 108 110
254 237 249 209 52 98 296 292 298 335 309 320 326 285 290 343 302 13 335 80 69 20 39 21 29 138 121 123 125 124 119 115 112 115 115 117 119 118 116 115 114 111 111 113
229 238 253 199 246 245 257 263 341 317 307 316 299 303 318 37 348 40 26 359 61 47 11 344 94 142 140 134 128 131 128 124 119 120 121 123 123 124 125 122 117 113 110 109
229 231 224 246 296 277 272 287 327 336 319 11 283 306 7 311 289 72 15 42 346 310 304 347 148 153 151 147 146 141 134 128 127 126 126 125 127 127 126 124 121 116 110 109
Wind_Speed_850mb
64 67 67 68 62 73 61 26 8 34 37 21 16 17 27 35 33 45 11 17 19 9 37 26 15 16 15 31 24 8 13 8 3 54 16 39 41 44 54 21 31 29 16 15
60 61 65 65 59 62 51 34 12 25 39 12 20 26 25 22 42 31 13 17 13 25 24 18 21 18 27 30 22 7 5 11 11 10 12 13 21 54 57 38 15 22 19 16
56 56 63 57 55 51 32 22 11 16 16 20 28 34 22 30 44 28 43 27 24 32 39 14 26 28 24 57 31 20 18 7 15 20 37 28 30 42 56 39 18 25 10 33
56 53 54 54 50 46 35 25 11 14 14 21 30 28 24 44 29 19 39 12 33 44 17 31 7 40 27 25 9 28 13 7 14 13 42 25 44 53 58 41 35 9 33 36
53 50 48 47 42 39 25 18 15 21 30 30 30 22 21 33 43 39 27 19 44 40 21 23 32 31 19 13 18 29 21 13 11 34 43 31 26 48 46 35 14 13 37 33
52 49 42 44 31 39 18 36 24 13 27 20 23 18 34 42 44 22 32 40 43 34 22 33 58 56 40 30 20 11 11 12 9 7 39 37 7 39 43 21 33 23 34 26
50 47 41 36 31 23 28 30 36 9 17 26 26 36 42 43 44 24 57 51 15 34 78 70 35 31 31 24 24 19 11 14 7 17 32 14 20 39 54 31 22 38 43 36
48 45 38 33 28 19 26 30 28 11 12 37 30 41 38 46 47 33 44 42 46 53 34 8 13 5 7 8 9 18 21 7 5 6 2 41 26 23 52 34 22 46 41 47
46 41 36 33 29 22 25 25 24 27 16 10 49 41 36 27 20 20 21 46 51 25 5 5 8 9 10 9 5 11 10 4 6 18 11 9 27 21 16 39 16 47 56 48
43 40 33 35 29 26 27 30 26 30 22 36 36 29 22 20 13 10 23 28 18 24 9 7 9 7 9 10 11 7 6 2 3 10 10 13 18 4 26 31 21 51 53 56
44 39 34 35 30 28 28 33 25 24 22 59 24 24 36 47 37 7 33 22 6 6 12 9 8 6 8 8 9 2 3 3 4 3 11 12 25 8 6 21 60 67 57 50
43 38 35 36 34 32 28 36 26 37 39 66 63 47 42 45 46 47 10 12 11 9 6 8 7 5 8 9 5 11 5 10 5 12 6 12 7 20 43 54 79 63 74 71
44 38 36 37 36 34 30 36 35 34 30 53 17 12 16 24 27 26 14 10 7 9 12 6 5 7 4 6 5 6 6 16 8 4 16 23 31 43 48 59 68 76 77 82
45 36 35 38 36 34 31 30 31 25 19 10 14 28 35 25 30 31 40 46 47 43 25 11 6 6 4 4 9 10 11 15 10 14 17 37 42 51 64 70 75 79 71 75
45 37 36 39 34 29 28 31 10 9 13 10 30 51 13 23 28 32 31 39 44 30 8 7 3 6 5 5 3 8 22 9 5 7 22 28 25 52 69 81 81 77 89 83
42 36 37 33 26 22 21 3 8 16 20 14 9 25 22 39 42 22 6 15 14 12 5 4 7 8 6 5 6 21 25 22 12 14 60 62 63 62 73 87 82 76 77 75
39 37 35 23 17 15 5 6 10 27 17 8 11 14 14 36 33 22 13 20 9 8 5 4 6 12 10 7 7 25 26 49 56 58 78 57 50 54 69 92 90 85 77 70
37 37 26 15 10 9 8 14 23 17 9 7 6 11 24 26 31 17 16 19 8 18 9 8 7 9 8 10 12 16 37 53 57 70 76 87 87 79 69 83 84 72 66 60
34 28 17 6 3 4 6 25 14 13 9 7 5 10 12 35 36 17 18 13 6 16 7 9 8 9 14 7 4 9 15 48 66 84 74 70 68 65 62 65 63 67 58 52
21 12 5 5 5 15 10 10 3 4 5 4 6 13 10 29 29 12 21 13 8 8 13 9 8 7 32 32 45 53 57 57 55 70 60 60 62 58 55 56 52 54 52 48
10 8 4 11 8 3 5 6 6 3 5 5 9 21 20 18 12 8 13 6 9 8 11 7 7 7 20 28 35 37 43 49 51 55 55 54 57 56 57 54 51 50 47 45
16 10 9 8 3 6 6 3 5 5 6 13 20 30 23 12 8 7 10 6 6 8 14 6 6 4 19 27 33 38 45 50 54 52 54 52 52 52 53 51 49 46 43 40
3 4 4 5 4 3 5 2 2 2 12 14 26 18 12 8 5 7 5 9 8 2 6 5 4 14 14 29 37 44 46 49 51 50 48 48 49 45 47 49 44 42 40 37
5 3 5 6 5 2 2 5 4 8 10 22 27 14 6 7 7 5 6 6 4 5 5 6 5 20 20 30 40 48 47 47 49 48 47 47 46 47 44 43 42 41 40 35
5 5 6 6 2 1 2 7 8 5 10 18 21 10 5 3 3 5 6 3 6 7 6 1 12 25 25 33 37 42 44 43 43 41 41 42 42 43 43 40 39 38 37 35
6 8 8 4 4 3 5 3 6 6 9 12 7 6 4 5 7 3 7 4 4 3 2 8 10 25 28 38 34 38 40 39 39 38 39 40 40 42 43 40 36 35 33 32
7 9 11 10 7 5 6 6 5 7 5 5 5 6 8 5 4 4 5 5 5 10 12 3 16 26 40 40 33 37 40 39 39 39 40 40 41 41 39 36 32 30 28 28
Wind_Direction_850mb
355 355 354 357 0 355 2 351 343 350 6 27 6 4 332 313 329 333 320 278 298 293 323 318 307 310 301 8 327 231 209 171 206 193 195 213 199 193 206 209 188 218 193 116
354 353 355 356 5 7 354 344 337 350 19 21 359 340 318 347 330 335 342 306 308 319 327 318 317 330 307 343 350 295 240 187 167 193 194 199 215 199 206 206 217 206 189 124
353 354 352 355 9 10 15 349 349 356 345 27 349 338 334 338 345 322 343 298 305 334 325 315 293 292 314 323 314 331 171 248 250 188 191 163 201 216 207 201 230 180 211 137
351 355 353 357 8 14 20 14 19 354 316 342 338 332 321 338 341 322 313 289 331 334 304 312 242 327 321 304 289 349 15 260 250 180 142 158 203 197 197 209 216 250 137 144
350 352 353 1 8 24 16 9 353 330 293 323 334 343 339 330 329 322 302 300 312 311 285 285 299 308 310 287 317 339 338 326 329 128 149 161 188 179 188 197 183 264 136 121
348 349 355 358 7 11 357 346 329 312 290 325 341 342 325 316 328 313 307 311 313 310 302 301 287 279 269 260 292 315 313 331 310 120 154 142 163 200 163 207 190 151 142 126
345 346 351 355 4 356 344 337 337 317 308 326 337 314 326 324 321 294 298 314 306 301 309 305 285 254 250 242 245 235 297 312 321 118 127 165 142 199 156 186 117 90 104 123
341 343 345 350 351 347 328 333 328 303 291 315 301 332 322 316 317 309 306 324 328 319 313 304 322 199 210 179 205 206 218 305 48 132 237 120 127 173 164 165 104 123 124 113
337 338 340 344 343 347 325 328 315 312 303 264 325 315 314 313 320 317 298 327 333 334 321 311 333 5 336 1 62 49 88 278 286 157 101 115 142 88 173 135 143 153 148 142
335 334 334 336 340 342 327 319 310 309 268 285 311 306 303 292 299 279 302 340 333 347 329 328 358 337 339 341 5 2 346 1 319 100 104 92 53 84 183 181 148 136 146 143
332 330 328 331 335 331 323 310 317 288 279 291 274 281 278 286 288 276 307 328 46 300 352 351 345 319 338 310 350 340 300 268 18 326 112 110 354 205 124 111 121 126 125 120
331 325 324 327 329 327 317 308 309 299 288 277 295 281 272 262 267 277 274 265 297 284 322 7 316 302 312 338 307 235 344 13 61 31 39 305 8 81 120 131 128 123 121 125
327 320 318 323 327 320 309 300 309 312 291 310 283 299 286 282 275 252 256 267 240 265 330 299 287 280 330 307 318 343 62 31 58 126 11 57 72 97 113 124 122 124 123 126
320 314 316 322 321 312 303 294 299 293 288 284 295 308 302 295 288 272 254 269 279 287 281 229 258 276 347 314 293 13 354 319 71 90 86 68 82 103 116 119 117 115 121 122
315 312 317 321 317 309 304 307 260 275 285 284 294 310 308 323 320 297 275 265 274 272 246 220 256 285 295 253 21 26 337 336 345 62 70 98 89 115 120 114 113 119 119 112
312 311 316 318 315 309 323 292 235 316 328 298 302 309 302 330 339 336 292 326 297 248 307 341 299 270 255 30 60 348 0 69 78 96 87 87 92 104 112 111 114 115 115 118
311 312 316 312 308 293 266 303 293 314 309 272 290 291 299 323 342 346 360 323 332 352 343 287 295 24 41 30 41 337 63 87 98 101 104 82 92 94 107 111 113 110 107 108
310 312 311 298 290 290 293 271 314 300 300 266 292 292 315 358 343 343 6 331 1 7 354 345 359 41 61 56 353 48 83 86 92 102 100 104 105 104 103 104 110 107 105 108
315 315 310 292 244 273 274 299 265 283 263 302 291 314 327 336 341 334 343 343 5 339 17 31 33 30 38 341 337 132 91 104 105 100 100 105 108 108 108 107 107 107 108 108
322 330 309 238 228 307 298 313 276 273 249 255 262 308 306 327 337 340 357 356 7 9 22 20 45 71 49 73 91 100 108 108 111 110 111 110 106 108 108 105 107 109 111 111
355 352 267 281 301 291 252 262 248 240 237 231 287 325 329 335 329 328 2 338 348 17 7 30 49 43 32 69 88 95 105 110 109 109 111 113 115 116 112 110 110 109 110 110
321 311 332 337 296 239 261 265 321 240 352 341 330 334 329 320 324 301 356 348 22 35 328 42 60 5 61 87 92 97 100 104 106 108 111 113 113 113 112 110 109 109 108 108
321 322 315 237 205 311 216 206 184 322 359 346 331 337 337 315 316 296 332 359 36 284 16 62 81 125 86 99 107 107 109 109 109 109 108 109 110 110 110 111 111 111 112 112
257 267 271 245 203 213 325 22 323 357 326 325 335 313 337 336 317 353 328 43 292 33 37 59 94 136 116 115 118 118 116 114 113 114 115 115 115 114 114 113 113 111 108 110
254 237 249 209 52 98 296 292 298 335 309 320 326 285 290 343 302 13 335 80 69 20 39 21 29 138 121 123 125 124 119 115 112 115 115 117 119 118 116 115 114 111 111 113
229 238 253 199 246 245 257 263 341 317 307 316 299 303 318 37 348 40 26 359 61 47 11 344 94 142 140 134 128 131 128 124 119 120 121 123 123 124 125 122 117 113 110 109
229 231 224 246 296 277 272 287 327 336 319 11 283 306 7 311 289 72 15 42 346 310 304 347 148 153 151 147 146 141 134 128 127 126 126 125 127 127 126 124 121 116 110 109